Location: Exeidioux
(45.6312°N, 1.6819°E)
Time: 15:42:54
(UTC+00:00)

COSMOS 2428 - Pass Details

Date: 03 March 2021
Orbit: 846 x 857 km, 70.9° (Epoch: 11 April)

Event Time Altitude Azimuth Distance (km) Brightness Sun altitude
Rises 21:00:06 0° 227° (SW) 3,395 6.0 -34.1°
Reaches altitude 10° 21:02:40 10° 234° (SW) 2,465 5.3 -34.5°
Enters shadow 21:07:11 39° 283° (WNW) 1,249 3.9 -35.2°
Exits shadow 21:13:54 - 17° (NNE) 2,664 5.4 -36.2°
Sets 21:16:00 0° 23° (NNE) 3,425 6.0 -36.5°
